Regional Weather Roundup
Issued by NWS

Home | Current Version | Previous Version | Text Only | Print | Product List | Glossary Off
Versions: 1 2 3 4 5 6 7 8 9 10 11 12 13 14 15 16 17 18 19 20 21 22 23 24 25 26 27 28 29 30 31 32 33 34 35 36 37 38 39 40 41 42 43 44 45 46 47 48 49 50

000
ASUS43 KMPX 111301
RWRMN
WEATHER ROUNDUP FOR MINNESOTA
NATIONAL WEATHER SERVICE TWIN CITIES/CHANHASSEN MN
800 AM CDT FRI JUL 11 2014


NOTE: "FAIR" INDICATES FEW OR NO CLOUDS BELOW 12,000 FEET WITH NO
SIGNIFICANT WEATHER AND/OR OBSTRUCTIONS TO VISIBILITY. N/A MEANS
CURRENT SKY AND/OR WEATHER CONDITIONS ARE NOT AVAILABLE.

MNZ060>063-068>070-111400-
   Twin Cities Metro

CITY           SKY/WX    TMP DP  RH WIND       PRES   REMARKS
TWIN CITIES    LGT RAIN  68  63  84 S5        30.00R
ST PAUL        LGT RAIN  67  62  84 CALM      30.01R
CRYSTAL        HVY RAIN  68  64  87 S10       29.98R VSB 1/2
BLAINE         LGT RAIN  70  66  88 SE3       30.01R
LAKEVILLE      RAIN      64  61  88 S12       29.99R
EDEN PRAIRIE   LGT RAIN  67  64  90 S12G21    29.96R FOG
SOUTH ST PAUL  LGT RAIN  68  62  81 NW3       30.01R
LAKE ELMO      LGT RAIN  68  63  83 S3        30.03R
$$
MNZ001>005-007-008-013>017-022>024-027-028-111400-
   Northwest Minnesota

CITY           SKY/WX    TMP DP  RH WIND       PRES   REMARKS
BEMIDJI        PTSUNNY   67  65  91 S5        29.86F
HALLOCK        SUNNY     70  66  88 S5        29.81R
ROSEAU         SUNNY     70  64  83 S12       29.81F
WARROAD        CLOUDY    70  66  88 S5        29.82F
THIEF RVR FALL   N/A    N/A N/A N/A MISG        N/A
CROOKSTON      SUNNY     70  68  94 SW8       29.84S
FOSSTON        CLOUDY    68  64  88 S8        29.85F
DETROIT LAKES  PTSUNNY   68  66  94 S6        29.88R
MOORHEAD       SUNNY     72  72 100 S5        29.84S
PARK RAPIDS    CLOUDY    66  65  96 S6        29.88R
$$
MNZ006-009>011-018-025>026-111400-
   North Central Minnesota

CITY           SKY/WX    TMP DP  RH WIND       PRES   REMARKS
BAUDETTE       CLOUDY    69  66  90 S8        29.84S
FLAG ISLAND    CLOUDY    70  64  83 S3        29.80F FOG
INTL FALLS     CLOUDY    68  64  87 S9        29.85F
WASKISH        CLOUDY    68  66  94 S2        29.85S
BIG FORK       CLOUDY    66  64  94 S6        29.89S
LONGVILLE      CLOUDY    66  64  94 S5        29.89S
GRAND RAPIDS   CLOUDY    66  63  88 S12       29.90S
CRANE LAKE     CLOUDY    64  63  94 S3        29.90S
ORR            CLOUDY    64  61  88 S6        29.87S
COOK           CLOUDY    64  63  94 S6        29.90S
$$
MNZ012-019>021-037-111400-
   Northeast Minnesota

CITY           SKY/WX    TMP DP  RH WIND       PRES   REMARKS
DULUTH         CLOUDY    65  62  90 SW10      29.94S
ELY            CLOUDY    63  61  94 S9        29.92F
HIBBING        CLOUDY    66  62  87 VRB5      29.91S
EVELETH        DRIZZLE   63  61  94 S9        29.93S
DULUTH HARBOR  CLOUDY    57  55  94 NE12      29.94R
TWO HARBORS    CLOUDY    57  54  88 NE3       29.94S HAZE
SILVER BAY     DRIZZLE   59  59 100 CALM      29.95S
GRAND MARAIS     N/A     49  47  93 NE7       29.99S
G MARAIS ARPRT LGT RAIN  61  57  88 S7        30.01F
$$
MNZ029>031-032-039>041-046>048-054>057-064-111400-
   West Central Minnesota

CITY           SKY/WX    TMP DP  RH WIND       PRES   REMARKS
FERGUS FALLS   CLOUDY    72  68  88 S7        29.85R
WHEATON        MOSUNNY   72  66  83 CALM      29.87R
MORRIS         SUNNY     72  70  94 SE6       29.87R
ALEXANDRIA     CLOUDY    70  66  87 S10       29.91S
WADENA         CLOUDY    66  64  94 SE6       29.88R
GLENWOOD       MOSUNNY   70  66  88 S9        29.92R
APPLETON       PTSUNNY   73  66  78 S7        29.87R
BENSON         CLOUDY    70  68  94 S7        29.89R
ORTONVILLE     CLOUDY    73  66  78 CALM      29.87R
MADISON        MOSUNNY   75  68  78 S7        29.87S
WILLMAR        FAIR      70  66  88 S5        29.92F
$$
MNZ033>034-036-042>043-049>051-058-059-111400-
   Central Minnesota

CITY           SKY/WX    TMP DP  RH WIND       PRES   REMARKS
ST CLOUD       LGT RAIN  67  65  93 SE7       29.94F FOG
SAUK CENTRE    CLOUDY    68  66  94 S7        29.92R
PAYNESVILLE    RAIN      65  64  99 SE8       29.93S
AITKIN         CLOUDY    70  63  78 S9        29.90S
PINE RIVER     CLOUDY    64  64 100 S6        29.92S
BRAINERD       LGT RAIN  71  64  78 S9        29.91R
STAPLES        CLOUDY    64  64 100 SE7       29.89S
LONG PRAIRIE   CLOUDY    66  64  94 SE9       29.92R
LITTLE FALLS   CLOUDY    64  63  94 SE7       29.93R
LITCHFIELD     TSTM      66  66 100 S7        29.94S
BUFFALO        TSTM      68  64  85 SE8       29.97F
MAPLE LAKE     CLOUDY    68  66  94 S8        29.96F
$$
MNZ037-044-045-052-053-111400-
   East Central Minnesota

CITY           SKY/WX    TMP DP  RH WIND       PRES   REMARKS
PRINCETON      RAIN      66  64  94 SE6       29.96F
MORA           CLOUDY    63  63 100 S12G18    29.95F
CAMBRIDGE      LGT RAIN  70  61  73 S6        29.95F
RUSH CITY      CLOUDY    64  63  94 S9        29.96F
MOOSE LAKE     CLOUDY    63  61  94 S7        29.92S
HINCKLEY       CLOUDY    64  63  94 S9        29.95R
CLOQUET        CLOUDY    64  63  94 S7        29.94S
MCGREGOR       CLOUDY    64  63  94 S9        29.92S
$$
MNZ071>073-080-081-089-090-097-098-111400-
   Southwest Minnesota

CITY           SKY/WX    TMP DP  RH WIND       PRES   REMARKS
MONTEVIDEO     CLOUDY    73  66  78 SW6       29.90S
GRANITE FALLS  CLOUDY    71  66  83 S16       29.91S
CANBY          MOSUNNY   74  66  76 SW18G29   29.87S
MARSHALL       CLOUDY    72  64  78 SW15G24   29.90R
REDWOOD FALLS  LGT RAIN  70  66  87 S14       29.93R
OLIVIA         PTSUNNY   70  66  88 S12G17    29.92S
PIPESTONE      PTSUNNY   70  66  88 SW15G21   29.93S
WINDOM         CLOUDY    70  64  83 S15       29.97R
WORTHINGTON    CLOUDY    70  64  83 S14G23    29.96S
JACKSON        CLOUDY    68  63  83 S17G24    29.97S
TRACY          PTSUNNY   73  67  83 SW18G24   29.92S
SLAYTON        PTSUNNY   69  66  90 S16       29.96R
$$
MNZ065>067-074>077-082>085-091>093-111400-
   South Central Minnesota

CITY           SKY/WX    TMP DP  RH WIND       PRES   REMARKS
MANKATO        CLOUDY    66  61  82 S15       30.00R
NEW ULM        LGT RAIN  66  66 100 S12G18    29.96R
ST JAMES       CLOUDY    68  63  83 S12       29.99S
FAIRMONT       CLOUDY    66  61  82 S13       30.00R
GLENCOE        RAIN      67  64  88 S8G18     29.95S
FARIBAULT      DRIZZLE   68  61  77 S8G17     30.02R
OWATONNA       RAIN      66  59  77 S10G17    30.03R
WASECA         LGT RAIN  63  55  77 S12G17    30.04R
ALBERT LEA     LGT RAIN  66  59  77 S14       30.02R
$$
MNZ078>079-086>088-094>096-111400-
   Southeast Minnesota

CITY           SKY/WX    TMP DP  RH WIND       PRES   REMARKS
ROCHESTER      CLOUDY    66  57  72 S16G25    30.05F
RED WING       CLOUDY    70  59  68 S10       30.00F
STANTON        LGT RAIN  67  60  77 S8        29.99R
DODGE CENTER   LGT RAIN  66  57  72 S17G23    30.03S
WINONA         CLOUDY    70  59  68 SW6       30.06F
AUSTIN         LGT RAIN  66  57  72 S13G20    30.04S
PRESTON        CLOUDY    65  57  75 S13G23    30.08F
$$
ABBREVIATIONS USED IN REMARKS
   TC - TEMPERATURES IN CELSIUS
  WCI - WIND CHILL INDEX
   HX - HEAT INDEX
  VSB - VISIBILITY
$$


USA.gov is the U.S. government's official web portal to all federal, state and local government web resources and services.